Volver al catálogo

STARLINK-5759

ActivoComunicacionesVLEO
NORAD 55592·PAYLOAD·🇺🇸 United States

Lanzado Feb 12, 2023 desde Cape Canaveral Space Force Station

Loading…

Próximos Pases (próximas 24 horas)

TLE

ActualizadoSource: CelesTrak SupGP

Época: Sep 15, 2026, 01:24 UTC

1 55592C 23020Z   26258.05881944 -.00031094  00000+0 -11262-2 0  2585
2 55592  43.0028  15.4380 0001340 269.1439 245.0343 15.27594430    10

Sigue STARLINK-5759 en tiempo real con AllMySat

Download on the App Store